Temp
10 9 9 10 11 15 17 17 17 20 22 21 21 20 21 22 22 22 22 23 21 19 16 15 14 14 14 14 14 14 14 14 14 14 13 12 11 11 12 12 12 12 12 12
10 8 12 13 12 12 15 17 18 21 21 20 20 20 22 23 22 22 23 22 21 18 16 15 15 14 14 14 14 14 14 13 13 13 12 12 11 11 12 12 12 12 12 12
9 10 12 13 11 12 14 17 19 19 20 19 19 19 20 22 22 23 22 22 21 17 16 15 14 13 13 14 15 15 15 15 15 14 14 13 12 11 10 11 11 11 11 11
8 10 7 12 10 12 14 18 18 19 18 18 20 19 23 24 22 20 21 21 20 17 16 15 14 13 12 14 14 15 15 14 13 12 12 11 11 12 12 11 11 11 11 11
7 9 7 11 9 12 16 18 18 18 18 17 17 18 21 23 22 22 21 20 18 17 16 14 13 12 12 13 13 14 14 13 13 13 13 13 12 12 11 10 10 10 10 10
9 10 11 12 11 12 16 17 17 17 17 15 18 19 22 22 22 23 21 19 17 16 15 13 12 11 12 12 13 13 13 13 13 13 12 12 11 11 10 10 10 9 9 9
8 6 8 10 10 12 15 15 12 13 14 17 20 20 22 21 21 21 20 18 17 15 14 12 11 11 10 10 11 11 12 12 12 12 12 11 11 10 10 10 9 9 9 8
8 8 7 9 11 12 13 15 17 15 16 19 18 18 21 21 20 20 19 18 16 15 14 12 12 11 10 9 10 11 11 12 11 11 11 10 10 9 9 9 9 8 8 7
9 9 7 9 11 14 14 16 18 18 19 21 19 20 20 20 19 18 19 18 16 15 14 13 12 11 9 9 9 10 11 11 10 10 9 9 9 8 8 8 8 7 7 6
9 8 6 9 12 12 15 18 16 18 17 18 20 21 21 20 20 18 19 18 16 15 14 13 11 10 9 8 8 9 10 10 10 9 8 8 8 7 7 7 6 6 5 4
9 7 7 10 11 12 13 16 16 18 19 20 20 21 22 21 20 19 19 18 16 15 14 12 11 10 9 8 9 9 9 9 8 8 7 7 7 7 6 6 5 4 4 3
10 10 8 9 11 15 15 16 17 18 17 19 19 20 20 20 18 18 18 17 16 15 14 12 11 9 8 8 7 7 7 7 7 7 7 6 6 6 5 4 4 3 3 3
13 13 10 9 9 12 14 15 16 18 18 19 19 20 20 19 18 17 18 17 16 14 13 12 10 9 8 7 7 6 6 6 6 6 6 5 5 4 4 4 3 3 3 2
14 15 17 15 15 13 14 14 16 18 17 18 19 20 20 19 19 18 17 16 16 14 13 12 10 9 8 7 6 6 5 6 6 6 5 5 4 4 3 2 2 2 2 2
14 15 17 18 18 17 16 16 16 16 18 18 20 20 21 21 20 19 17 16 15 14 12 11 10 9 8 7 6 5 4 5 5 5 4 4 4 3 2 2 2 1 1 1
14 15 16 16 16 17 17 17 17 17 18 19 19 20 22 21 20 19 17 16 15 14 12 11 10 9 8 6 5 4 4 5 4 4 4 3 3 2 1 1 1 1 0 -1
13 14 16 16 16 16 15 17 17 18 18 18 18 20 21 18 18 18 17 16 15 14 13 11 10 9 7 6 4 3 4 4 4 3 3 2 2 1 1 1 1 -0 -1 -2
14 15 15 14 15 13 18 17 18 18 19 19 19 19 20 18 17 16 15 15 15 13 12 10 9 7 6 4 3 3 4 4 3 3 2 1 1 1 1 0 -1 -2 -2 -3
15 14 13 14 15 18 19 15 16 17 17 19 19 19 18 15 12 11 10 12 11 11 10 8 7 5 4 3 3 3 3 3 3 2 1 1 1 1 0 -1 -1 -2 -3 -3
10 13 12 13 14 15 16 15 15 18 16 20 19 18 16 13 14 13 8 8 9 8 8 7 5 5 4 3 3 3 3 2 2 1 1 1 1 -0 -1 -1 -2 -3 -3 -4
9 9 10 11 13 15 15 15 15 16 16 15 16 16 14 14 13 9 8 7 8 8 8 7 5 3 3 3 3 3 2 2 1 1 1 1 -0 -1 -1 -2 -3 -3 -4 -5
10 10 10 10 11 12 14 13 15 13 12 13 14 13 12 9 8 7 7 7 7 7 6 5 3 3 3 3 3 2 1 1 1 1 0 -0 -1 -2 -2 -3 -3 -4 -5 -6
12 15 14 14 14 12 11 12 11 12 12 12 11 10 9 8 7 7 7 7 6 6 5 4 3 3 3 2 2 1 1 1 1 0 -1 -1 -1 -2 -2 -4 -5 -6 -6 -6
12 11 15 13 12 12 11 9 10 11 11 10 9 9 9 8 7 6 6 6 5 5 4 3 2 2 2 2 1 1 1 1 -0 -1 -1 -1 -2 -2 -4 -5 -6 -6 -6 -7
12 11 13 12 10 9 9 10 10 9 9 8 8 8 8 7 6 7 6 5 4 4 3 3 1 1 1 1 1 1 0 -1 -1 -1 -1 -2 -3 -4 -5 -6 -6 -7 -7 -8
11 13 13 15 14 14 12 9 8 8 8 8 9 8 7 7 7 6 5 5 4 4 3 2 1 1 1 1 -0 -0 -1 -1 -1 -1 -2 -4 -4 -6 -6 -6 -6 -7 -7 -8
Height
1468 1473 1467 1465 1467 1457 1451 1453 1458 1446 1444 1448 1449 1453 1450 1449 1451 1451 1450 1451 1457 1461 1462 1463 1462 1464 1464 1464 1464 1465 1467 1469 1471 1473 1475 1475 1476 1477 1478 1479 1480 1482 1481 1481
1467 1463 1458 1458 1462 1461 1453 1449 1446 1439 1442 1451 1451 1448 1441 1441 1443 1444 1444 1447 1453 1458 1461 1462 1463 1465 1465 1465 1465 1466 1468 1470 1472 1472 1473 1474 1476 1477 1477 1479 1481 1481 1481 1480
1456 1445 1453 1454 1459 1451 1447 1445 1438 1441 1441 1450 1452 1447 1438 1435 1437 1436 1440 1442 1449 1456 1460 1461 1463 1464 1464 1464 1465 1466 1468 1470 1471 1473 1473 1474 1476 1478 1479 1480 1481 1481 1480 1479
1453 1452 1458 1449 1452 1451 1445 1433 1438 1440 1448 1453 1442 1445 1417 1416 1427 1435 1437 1439 1447 1453 1458 1461 1462 1462 1463 1464 1466 1467 1469 1471 1473 1474 1474 1476 1477 1478 1479 1481 1481 1480 1479 1477
1446 1440 1454 1440 1445 1437 1431 1432 1438 1439 1444 1448 1450 1451 1421 1412 1421 1425 1431 1437 1445 1452 1456 1459 1461 1461 1462 1464 1466 1468 1470 1471 1473 1474 1475 1476 1476 1478 1479 1480 1480 1478 1477 1475
1435 1435 1434 1426 1440 1437 1429 1433 1439 1442 1446 1460 1440 1438 1419 1412 1415 1416 1427 1436 1444 1450 1455 1459 1460 1460 1461 1465 1467 1469 1470 1471 1473 1474 1475 1476 1477 1478 1479 1479 1478 1477 1475 1473
1432 1438 1433 1432 1431 1430 1422 1435 1455 1462 1460 1443 1419 1428 1410 1413 1418 1419 1426 1435 1442 1449 1454 1456 1459 1460 1463 1465 1467 1470 1471 1471 1473 1474 1475 1476 1477 1478 1478 1477 1477 1475 1473 1471
1426 1430 1429 1420 1415 1415 1424 1424 1424 1439 1438 1427 1432 1435 1413 1411 1418 1420 1425 1433 1441 1447 1452 1456 1458 1461 1463 1465 1467 1469 1470 1471 1473 1474 1475 1476 1477 1477 1477 1476 1475 1473 1471 1469
1420 1420 1424 1416 1416 1412 1422 1418 1413 1413 1408 1408 1419 1413 1412 1414 1418 1421 1423 1431 1438 1444 1450 1454 1457 1461 1462 1465 1467 1469 1470 1471 1473 1474 1475 1476 1476 1476 1475 1475 1473 1471 1468 1466
1421 1423 1425 1412 1406 1417 1412 1408 1424 1414 1425 1422 1410 1407 1407 1412 1412 1419 1422 1428 1435 1442 1448 1453 1457 1460 1462 1464 1466 1468 1469 1471 1472 1474 1475 1475 1475 1474 1473 1472 1470 1467 1465 1462
1414 1424 1420 1408 1415 1416 1420 1414 1415 1407 1407 1404 1411 1406 1396 1408 1411 1414 1419 1424 1432 1439 1445 1451 1455 1458 1461 1462 1465 1467 1468 1470 1472 1473 1473 1473 1473 1472 1471 1469 1467 1464 1462 1460
1412 1404 1417 1418 1414 1408 1412 1414 1411 1411 1420 1407 1406 1411 1405 1409 1412 1415 1417 1423 1430 1438 1443 1449 1453 1456 1459 1461 1463 1466 1468 1470 1471 1471 1472 1471 1471 1470 1468 1466 1464 1462 1459 1457
1404 1399 1410 1425 1425 1418 1415 1416 1414 1409 1411 1409 1411 1410 1406 1410 1412 1416 1418 1423 1430 1436 1442 1446 1451 1455 1457 1460 1463 1464 1466 1467 1469 1469 1470 1469 1469 1468 1466 1464 1461 1459 1457 1455
1400 1392 1382 1394 1395 1410 1412 1413 1412 1408 1413 1409 1405 1404 1406 1409 1412 1416 1419 1423 1429 1435 1440 1444 1449 1453 1456 1458 1461 1463 1464 1465 1467 1467 1468 1467 1467 1465 1463 1460 1458 1456 1454 1451
1401 1389 1382 1379 1384 1389 1397 1404 1409 1411 1405 1408 1400 1403 1398 1402 1408 1413 1417 1421 1427 1432 1437 1441 1446 1450 1454 1456 1459 1461 1462 1464 1465 1466 1466 1465 1464 1462 1460 1457 1455 1453 1450 1447
1400 1393 1388 1391 1390 1391 1395 1396 1398 1400 1399 1399 1399 1395 1393 1397 1404 1411 1415 1419 1424 1429 1435 1440 1444 1448 1451 1454 1457 1459 1460 1462 1463 1464 1463 1463 1461 1459 1457 1454 1452 1450 1447 1443
1400 1399 1394 1393 1393 1396 1402 1388 1391 1393 1392 1395 1397 1394 1393 1404 1407 1411 1414 1418 1423 1428 1433 1437 1442 1446 1449 1452 1455 1457 1458 1460 1461 1461 1461 1460 1458 1456 1454 1452 1449 1446 1442 1438
1395 1396 1396 1400 1396 1410 1377 1380 1380 1384 1383 1386 1388 1391 1395 1401 1407 1413 1417 1420 1423 1427 1432 1436 1440 1444 1447 1450 1453 1454 1456 1458 1459 1459 1458 1457 1455 1453 1451 1449 1445 1442 1438 1434
1393 1399 1403 1400 1394 1377 1374 1383 1383 1383 1382 1380 1383 1389 1397 1404 1412 1419 1420 1422 1426 1429 1432 1435 1438 1441 1444 1447 1450 1453 1455 1456 1456 1456 1455 1454 1452 1450 1448 1445 1442 1438 1433 1428
1402 1402 1407 1402 1402 1396 1380 1382 1383 1380 1385 1372 1377 1386 1396 1406 1407 1413 1420 1422 1424 1427 1430 1433 1436 1439 1443 1446 1449 1451 1453 1454 1454 1453 1453 1451 1449 1447 1444 1441 1437 1432 1428 1423
1406 1409 1411 1411 1403 1389 1382 1384 1385 1389 1387 1383 1383 1388 1398 1403 1404 1410 1417 1422 1424 1427 1430 1432 1436 1439 1442 1445 1448 1450 1451 1451 1451 1450 1450 1449 1446 1444 1441 1437 1433 1428 1423 1419
1397 1404 1408 1411 1409 1404 1386 1388 1387 1389 1389 1388 1390 1395 1401 1406 1410 1414 1418 1421 1425 1427 1430 1433 1436 1439 1442 1445 1447 1448 1449 1449 1449 1449 1448 1446 1444 1441 1437 1433 1429 1425 1420 1415
1388 1378 1384 1385 1384 1387 1388 1388 1389 1390 1391 1393 1396 1401 1403 1407 1412 1415 1419 1422 1425 1428 1431 1434 1436 1439 1441 1444 1445 1446 1446 1447 1447 1446 1445 1443 1440 1437 1433 1429 1425 1420 1416 1412
1381 1382 1377 1383 1383 1385 1388 1389 1390 1391 1394 1396 1399 1402 1406 1408 1413 1416 1420 1423 1425 1428 1431 1434 1436 1438 1440 1442 1443 1444 1445 1445 1444 1443 1442 1439 1436 1432 1429 1426 1422 1417 1413 1408
1375 1379 1378 1381 1384 1387 1388 1389 1391 1393 1396 1398 1402 1405 1408 1410 1415 1417 1421 1424 1426 1429 1431 1433 1435 1437 1439 1440 1442 1443 1443 1442 1441 1440 1438 1435 1432 1429 1425 1422 1418 1413 1409 1405
1373 1369 1372 1370 1371 1375 1379 1387 1391 1393 1396 1400 1403 1406 1410 1413 1416 1419 1422 1424 1426 1428 1430 1433 1435 1436 1437 1439 1440 1440 1440 1440 1439 1438 1435 1433 1429 1426 1422 1417 1412 1409 1404 1400
Wind_Speed
27 12 19 27 21 27 22 17 23 21 22 20 19 19 23 21 24 20 15 14 14 11 8 7 9 10 12 13 15 15 14 14 14 13 13 12 10 9 8 7 7 7 7 8
19 19 26 28 24 22 22 21 24 17 11 13 16 17 18 19 19 23 19 18 17 14 12 12 13 13 14 16 16 17 16 15 14 13 14 13 13 12 11 10 8 8 9 10
23 23 25 28 24 25 23 28 20 17 14 10 14 19 22 19 27 21 16 17 18 18 17 16 16 15 16 17 17 17 17 17 16 15 15 15 14 12 10 8 8 9 9 11
15 21 21 27 29 27 26 16 13 16 7 9 11 7 5 11 14 12 14 18 21 20 18 18 17 16 17 18 18 17 17 16 15 14 14 13 11 10 9 7 7 8 11 14
11 8 28 28 27 22 14 16 16 13 12 7 12 6 13 8 16 13 13 19 22 21 21 20 18 17 17 18 17 17 16 15 15 13 12 10 10 9 8 6 8 11 15 19
21 17 25 23 21 23 14 17 11 7 7 7 15 13 11 12 10 8 15 20 22 23 22 19 17 17 18 17 17 16 15 15 13 11 11 9 9 8 6 8 10 13 16 19
11 19 3 11 17 20 18 20 6 4 5 7 5 12 9 10 6 6 15 21 24 24 23 20 19 17 16 16 16 14 13 14 12 10 9 7 6 5 6 9 12 15 18 20
8 7 9 6 14 10 21 15 7 7 8 11 7 8 5 8 4 6 17 23 24 24 21 20 18 17 16 15 14 13 12 11 10 8 6 5 4 5 7 11 14 16 18 20
9 4 4 18 10 18 17 19 5 1 4 8 8 10 6 5 6 8 17 24 25 25 23 22 19 17 15 14 13 13 11 10 8 6 4 3 4 7 10 13 16 18 19 19
3 1 5 4 17 4 11 13 8 4 8 5 7 8 7 10 7 7 14 23 25 25 23 21 19 17 15 14 14 12 10 9 7 4 2 3 6 8 11 15 17 18 18 18
1 3 4 4 4 11 6 11 5 3 3 3 6 5 11 4 2 7 12 22 26 25 23 22 20 17 16 14 13 12 10 8 6 3 0 3 6 10 13 15 17 18 16 16
7 4 3 4 4 8 10 9 10 7 4 3 5 6 4 4 4 5 12 21 24 24 23 21 20 18 16 14 13 11 10 8 7 3 2 5 8 12 14 16 17 15 15 17
10 6 4 4 7 5 11 9 13 11 1 10 7 6 5 7 8 8 13 20 23 23 23 22 20 18 16 15 13 11 10 9 7 4 3 6 10 13 15 16 15 14 16 19
7 7 9 4 8 12 10 18 18 16 10 9 11 8 10 7 7 9 14 19 22 23 23 21 20 18 16 15 13 12 11 10 7 4 5 8 12 15 17 16 15 16 18 21
4 5 3 2 5 16 15 19 21 21 18 13 12 15 9 10 9 8 14 20 22 23 23 22 20 18 17 15 13 12 11 9 7 5 7 11 14 16 15 14 16 18 21 23
9 2 3 4 2 6 11 17 21 21 21 20 18 16 7 1 4 9 15 20 22 22 21 20 18 18 17 16 14 13 12 10 5 5 9 13 15 15 15 16 19 21 22 24
9 5 4 3 6 5 8 18 19 19 21 19 20 17 13 6 8 10 13 16 17 18 18 18 17 16 16 15 14 13 11 7 4 6 10 13 15 15 16 19 21 22 23 25
13 11 3 1 6 5 1 3 16 20 19 19 19 15 6 10 9 7 5 9 11 11 14 15 15 16 15 15 13 13 10 6 4 8 10 13 16 16 18 20 20 22 24 25
7 5 3 3 7 8 8 4 5 12 17 20 17 15 6 17 18 9 8 10 11 11 12 13 14 15 16 15 14 11 8 5 6 8 11 15 16 18 19 21 23 25 26 27
5 5 2 1 3 4 6 3 0 5 7 5 16 13 16 20 9 6 11 11 12 12 12 13 14 14 14 13 12 9 6 5 6 10 14 16 17 19 21 23 26 26 27 29
4 3 4 4 3 7 3 4 4 5 2 3 6 15 21 12 5 24 17 13 11 10 10 11 12 12 13 12 10 7 5 6 8 13 15 16 17 20 22 25 26 27 27 28
6 6 3 4 4 7 5 5 4 3 6 9 13 17 17 19 18 18 16 13 11 11 11 11 12 12 10 9 8 6 4 7 12 14 14 16 19 21 24 26 27 26 25 27
7 7 5 9 5 3 2 3 2 5 12 15 18 17 21 20 17 15 15 12 11 10 10 10 10 10 9 7 6 4 6 10 12 13 15 17 21 23 24 24 24 25 24 25
4 3 3 3 4 2 4 2 4 13 14 16 18 19 17 18 15 14 12 10 9 8 9 10 10 9 7 6 5 7 10 10 11 13 16 20 23 24 23 21 22 23 24 26
1 9 8 1 2 2 5 6 13 16 17 18 15 13 14 15 13 11 9 8 7 8 8 9 9 7 7 7 8 8 8 9 12 15 19 21 22 22 22 21 22 24 22 23
7 6 6 3 13 4 10 17 17 19 19 18 17 16 13 11 10 8 6 6 7 8 9 9 9 9 8 7 7 7 8 11 14 18 20 20 22 21 21 23 27 22 23 23
Wind_Direction
207 209 211 208 224 229 209 214 216 231 218 234 241 250 253 242 244 255 251 242 209 188 161 133 116 109 107 104 102 97 101 101 108 117 125 125 118 114 105 92 79 64 55 41
223 219 223 217 236 218 233 209 209 224 212 201 245 254 254 246 245 249 248 221 204 176 162 141 127 119 108 105 103 104 104 107 111 120 125 123 117 106 99 90 77 55 35 23
221 221 226 209 224 237 221 212 216 217 193 228 265 266 257 250 245 247 233 229 195 182 166 150 138 127 117 111 110 110 109 107 107 109 109 106 101 94 86 73 53 36 16 2
234 241 261 213 219 226 210 208 213 210 189 223 203 272 219 223 196 200 199 198 181 175 165 153 142 130 125 119 117 112 110 110 111 116 117 120 114 101 84 62 37 8 355 351
212 219 240 218 211 216 208 189 196 200 209 272 230 249 261 206 200 192 198 187 177 172 164 157 147 135 131 127 124 120 120 119 117 114 111 110 104 93 79 52 21 4 353 347
244 238 223 214 219 206 213 171 177 193 215 238 236 223 262 186 205 194 176 179 173 169 164 157 149 140 138 134 131 129 128 122 118 113 107 100 93 85 53 24 9 1 351 343
213 244 280 243 215 218 157 170 142 164 194 223 167 205 229 124 137 163 172 174 172 169 166 161 154 146 144 141 138 133 132 126 123 119 112 101 85 55 23 8 356 348 342 336
177 195 205 222 214 164 182 166 160 162 192 196 146 220 221 97 114 172 171 172 171 171 170 168 161 154 150 147 145 143 142 137 134 127 119 103 68 28 3 350 342 338 334 332
185 263 309 251 182 162 195 202 40 133 29 165 169 228 153 157 141 169 172 171 173 175 174 170 164 161 156 151 150 156 155 151 149 144 123 76 25 4 353 343 338 336 331 327
230 315 278 171 130 34 197 174 180 228 165 196 163 185 125 170 146 162 184 176 176 176 174 171 169 165 159 157 159 162 166 168 168 156 117 25 3 354 347 341 338 333 328 323
229 243 284 126 196 150 176 173 225 301 325 221 155 146 94 81 102 173 183 179 178 176 175 174 173 168 165 167 169 174 178 181 177 172 124 352 347 346 344 341 337 331 328 327
228 178 106 84 322 175 182 192 201 205 178 278 331 101 135 75 95 170 164 177 175 177 177 177 175 172 171 169 174 177 182 187 192 202 280 325 335 339 340 340 338 333 329 327
206 179 98 66 14 345 190 208 211 239 325 225 226 116 120 113 111 139 153 168 172 177 178 177 177 178 176 175 172 179 187 196 206 229 287 320 331 336 336 334 330 330 327 324
264 270 239 140 155 160 191 195 209 221 220 229 218 137 152 146 125 145 154 170 176 180 179 180 182 182 181 179 178 180 189 203 216 246 296 322 329 330 331 329 330 329 326 324
275 286 247 7 70 167 180 189 204 221 227 227 227 231 206 179 175 170 168 170 176 182 185 185 184 184 184 182 180 178 194 206 224 270 315 327 329 330 331 330 329 327 325 323
218 261 299 222 215 217 212 210 217 221 227 234 247 248 279 313 136 166 179 179 183 189 188 188 187 186 186 185 183 187 199 211 240 304 328 331 331 331 330 330 328 326 325 323
205 244 200 176 172 194 249 226 220 226 230 234 235 240 236 178 172 194 184 185 189 190 189 188 188 187 186 184 183 187 198 213 255 316 328 331 330 329 329 328 327 326 323 320
198 227 297 263 170 216 2 29 228 225 237 232 243 254 270 184 174 152 164 179 171 176 179 180 179 176 176 174 174 188 200 221 282 319 330 330 328 326 326 327 325 321 320 317
194 231 238 231 222 289 283 187 187 197 237 233 233 230 171 121 121 107 104 121 129 136 144 153 163 168 170 178 186 192 207 248 306 325 331 325 323 325 327 326 323 322 318 319
95 205 221 200 252 244 48 97 198 183 255 228 210 207 158 159 180 147 141 131 128 134 143 154 162 170 169 176 184 196 225 287 305 332 324 321 324 326 325 324 322 320 320 317
143 163 167 223 267 289 74 125 147 197 43 65 169 162 164 176 69 138 140 130 136 142 149 156 155 153 171 179 189 213 262 284 320 326 319 319 325 324 323 323 322 321 318 313
151 141 173 206 197 260 139 118 232 79 104 131 135 148 136 121 118 124 135 137 139 143 144 147 153 166 174 189 205 232 271 318 322 314 317 323 326 325 324 322 321 316 314 312
202 202 181 202 207 106 154 37 22 159 141 136 134 135 132 129 130 135 138 142 144 147 154 158 166 177 189 201 231 256 289 313 311 316 322 323 324 325 322 318 316 314 314 313
207 213 208 178 157 149 193 148 153 149 140 138 136 134 134 132 137 138 142 147 155 166 171 173 177 188 205 230 264 279 292 302 311 318 322 323 323 322 321 312 312 311 310 310
64 160 168 210 169 144 201 176 153 139 136 132 128 128 132 135 132 140 146 158 174 180 187 187 187 199 221 246 262 278 290 308 315 318 321 323 320 317 316 312 311 310 307 304
190 172 185 225 176 190 169 163 155 143 143 146 145 137 134 142 147 153 160 180 192 197 202 197 199 208 233 257 260 281 302 312 312 316 322 318 317 317 313 313 313 311 310 310